Wetterdaten: Freitag, 27.06.2014
Datum Zeit Temp. A. Mod.Schuppen Waschkche Feuchte A. Luftdruck Regen Wind Richtung Richtung Sonnenschein Helligkeit Solar
27.06.2014 00:04 14,9 C 11,6 C 19,9 C 65 % 1013,9 hPa 0,0 l/m 0,0 km/h (0 Bft) SO 140 0 min 0 lux 0 W/m
27.06.2014 00:10 14,8 C 11,5 C 19,9 C 65 % 1013,9 hPa 0,0 l/m 0,0 km/h (0 Bft) SO 140 0 min 0 lux 0 W/m
27.06.2014 00:15 14,8 C 11,5 C 20,0 C 65 % 1013,9 hPa 0,0 l/m 0,0 km/h (0 Bft) SO 145 0 min 0 lux 0 W/m
27.06.2014 00:19 14,7 C 11,4 C 19,9 C 65 % 1013,9 hPa 0,0 l/m 0,0 km/h (0 Bft) SO 145 0 min 0 lux 0 W/m
27.06.2014 00:24 14,5 C 11,4 C 19,9 C 66 % 1013,9 hPa 0,0 l/m 0,0 km/h (0 Bft) SO 140 0 min 0 lux 0 W/m
27.06.2014 00:29 14,5 C 11,3 C 19,9 C 66 % 1013,9 hPa 0,0 l/m 1,0 km/h (0 Bft) SO45 125 0 min 0 lux 0 W/m
27.06.2014 00:34 14,6 C 11,1 C 19,8 C 66 % 1013,9 hPa 0,0 l/m 0,8 km/h (0 Bft) O22.5 85 0 min 0 lux 0 W/m
27.06.2014 00:39 14,7 C 11,1 C 19,9 C 66 % 1013,9 hPa 0,0 l/m 0,0 km/h (0 Bft) O-SO 110 0 min 0 lux 0 W/m
27.06.2014 00:40 14,7 C 11,1 C 19,9 C 66 % 1013,9 hPa 0,0 l/m 0,0 km/h (0 Bft) O-SO 110 0 min 0 lux 0 W/m
27.06.2014 00:44 14,8 C 11,1 C 19,8 C 66 % 1013,9 hPa 0,0 l/m 0,0 km/h (0 Bft) O-SO 115 0 min 0 lux 0 W/m
27.06.2014 00:49 14,8 C 10,9 C 19,8 C 66 % 1013,9 hPa 0,0 l/m 0,0 km/h (0 Bft) O-SO 115 0 min 0 lux 0 W/m
27.06.2014 00:55 14,7 C 10,8 C 19,8 C 66 % 1013,9 hPa 0,0 l/m 0,7 km/h (0 Bft) O-SO 110 0 min 0 lux 0 W/m
27.06.2014 01:00 14,3 C 10,7 C 19,8 C 67 % 1013,9 hPa 0,0 l/m 0,0 km/h (0 Bft) O-SO 115 0 min 0 lux 0 W/m
27.06.2014 01:04 14,3 C 10,7 C 19,8 C 67 % 1013,9 hPa 0,0 l/m 0,0 km/h (0 Bft) O-SO 115 0 min 0 lux 0 W/m
27.06.2014 01:09 14,0 C 10,6 C 19,8 C 68 % 1013,9 hPa 0,0 l/m 0,0 km/h (0 Bft) O-SO 115 0 min 0 lux 0 W/m
27.06.2014 01:14 13,9 C 10,7 C 19,8 C 68 % 1013,9 hPa 0,0 l/m 0,0 km/h (0 Bft) O-SO 115 0 min 0 lux 0 W/m
27.06.2014 01:19 13,9 C 10,8 C 19,8 C 69 % 1013,9 hPa 0,0 l/m 0,0 km/h (0 Bft) O-SO 115 0 min 0 lux 0 W/m
27.06.2014 01:25 14,2 C 10,9 C 19,7 C 68 % 1013,9 hPa 0,0 l/m 0,0 km/h (0 Bft) O-SO 120 0 min 0 lux 0 W/m
27.06.2014 01:30 14,2 C 11,0 C 19,7 C 68 % 1013,9 hPa 0,0 l/m 0,7 km/h (0 Bft) O-SO 110 0 min 0 lux 0 W/m
27.06.2014 01:34 14,1 C 11,2 C 19,7 C 68 % 1013,9 hPa 0,0 l/m 0,4 km/h (0 Bft) O-SO 105 0 min 0 lux 0 W/m
27.06.2014 01:39 14,2 C 11,3 C 19,7 C 68 % 1013,9 hPa 0,0 l/m 0,4 km/h (0 Bft) O-SO 105 0 min 0 lux 0 W/m
27.06.2014 01:44 14,2 C 11,3 C 19,7 C 68 % 1013,9 hPa 0,0 l/m 0,1 km/h (0 Bft) O-SO 105 0 min 0 lux 0 W/m
27.06.2014 01:49 14,3 C 11,5 C 19,7 C 68 % 1013,9 hPa 0,0 l/m 0,0 km/h (0 Bft) O-SO 105 0 min 0 lux 0 W/m
27.06.2014 01:55 14,4 C 11,6 C 19,7 C 68 % 1013,9 hPa 0,0 l/m 0,6 km/h (0 Bft) O-SO 105 0 min 0 lux 0 W/m
27.06.2014 01:59 14,5 C 11,7 C 19,6 C 68 % 1013,9 hPa 0,0 l/m 0,3 km/h (0 Bft) O-SO 105 0 min 0 lux 0 W/m
27.06.2014 02:05 14,6 C 12,0 C 19,6 C 68 % 1013,9 hPa 0,0 l/m 0,4 km/h (0 Bft) O-SO 105 0 min 0 lux 0 W/m
27.06.2014 02:10 14,7 C 12,2 C 19,6 C 68 % 1013,9 hPa 0,0 l/m 0,4 km/h (0 Bft) O-SO 105 0 min 0 lux 0 W/m
27.06.2014 02:15 14,8 C 12,4 C 19,6 C 68 % 1013,9 hPa 0,0 l/m 4,5 km/h (1 Bft) O-SO 105 0 min 0 lux 0 W/m
27.06.2014 02:19 14,9 C 12,6 C 19,6 C 68 % 1013,9 hPa 0,0 l/m 0,4 km/h (0 Bft) O 100 0 min 0 lux 0 W/m
27.06.2014 02:24 15,0 C 12,9 C 19,6 C 68 % 1013,9 hPa 0,0 l/m 7,8 km/h (2 Bft) O 95 0 min 0 lux 0 W/m
27.06.2014 02:29 15,0 C 13,0 C 19,6 C 67 % 1013,9 hPa 0,0 l/m 7,3 km/h (2 Bft) O45 100 0 min 0 lux 0 W/m
27.06.2014 02:34 15,0 C 13,0 C 19,6 C 67 % 1013,9 hPa 0,0 l/m 1,3 km/h (1 Bft) O22.5 100 0 min 0 lux 0 W/m
27.06.2014 02:40 15,0 C 13,1 C 19,5 C 68 % 1013,9 hPa 0,0 l/m 4,8 km/h (1 Bft) O-SO22.5 105 0 min 0 lux 0 W/m
27.06.2014 02:45 15,0 C 13,1 C 19,5 C 68 % 1013,9 hPa 0,0 l/m 5,3 km/h (1 Bft) O22.5 90 0 min 0 lux 0 W/m
27.06.2014 02:49 15,0 C 13,1 C 19,5 C 68 % 1013,9 hPa 0,0 l/m 0,9 km/h (0 Bft) O-SO 105 0 min 0 lux 0 W/m
27.06.2014 02:54 15,0 C 13,1 C 19,5 C 68 % 1013,9 hPa 0,0 l/m 0,7 km/h (0 Bft) O22.5 100 0 min 0 lux 0 W/m
27.06.2014 03:00 15,0 C 13,1 C 19,5 C 68 % 1013,9 hPa 0,0 l/m 0,6 km/h (0 Bft) O 95 0 min 0 lux 0 W/m
27.06.2014 03:04 15,0 C 13,2 C 19,5 C 68 % 1013,9 hPa 0,0 l/m 5,6 km/h (2 Bft) O-SO22.5 115 0 min 0 lux 0 W/m
27.06.2014 03:09 15,0 C 13,2 C 19,5 C 68 % 1013,9 hPa 0,0 l/m 0,6 km/h (0 Bft) O-SO 115 0 min 0 lux 0 W/m
27.06.2014 03:14 15,0 C 13,3 C 19,5 C 68 % 1013,9 hPa 0,0 l/m 6,0 km/h (2 Bft) O-SO22.5 115 0 min 0 lux 0 W/m
27.06.2014 03:20 15,0 C 13,3 C 19,4 C 68 % 1013,9 hPa 0,0 l/m 6,0 km/h (2 Bft) O-SO22.5 115 0 min 0 lux 0 W/m
27.06.2014 03:25 15,0 C 13,4 C 19,5 C 68 % 1013,9 hPa 0,0 l/m 4,6 km/h (1 Bft) O-SO 105 0 min 0 lux 0 W/m
27.06.2014 03:30 15,0 C 13,3 C 19,4 C 68 % 1013,9 hPa 0,0 l/m 4,6 km/h (1 Bft) O-SO 105 0 min 0 lux 0 W/m
27.06.2014 03:34 15,0 C 13,2 C 19,4 C 68 % 1013,9 hPa 0,0 l/m 0,6 km/h (0 Bft) O-SO 105 0 min 0 lux 0 W/m
27.06.2014 03:39 15,0 C 13,1 C 19,4 C 68 % 1013,9 hPa 0,0 l/m 0,6 km/h (0 Bft) O-SO 105 0 min 0 lux 0 W/m
27.06.2014 03:44 15,0 C 13,0 C 19,4 C 68 % 1013,9 hPa 0,0 l/m 3,7 km/h (1 Bft) O-SO 110 0 min 0 lux 0 W/m
27.06.2014 03:49 15,0 C 12,8 C 19,4 C 68 % 1013,9 hPa 0,0 l/m 4,5 km/h (1 Bft) O-SO22.5 120 0 min 0 lux 0 W/m
27.06.2014 03:55 15,0 C 12,5 C 19,4 C 68 % 1013,9 hPa 0,0 l/m 3,8 km/h (1 Bft) O-SO 110 0 min 0 lux 0 W/m
27.06.2014 04:00 15,0 C 12,6 C 19,4 C 67 % 1013,9 hPa 0,0 l/m 4,6 km/h (1 Bft) O-SO45 120 0 min 0 lux 0 W/m
27.06.2014 04:05 15,0 C 12,5 C 19,4 C 67 % 1013,9 hPa 0,0 l/m 1,3 km/h (1 Bft) O-SO22.5 120 0 min 0 lux 0 W/m
27.06.2014 04:10 15,2 C 12,8 C 19,4 C 67 % 1013,9 hPa 0,0 l/m 4,3 km/h (1 Bft) O-SO22.5 115 0 min 0 lux 0 W/m
27.06.2014 04:14 15,2 C 12,8 C 19,4 C 66 % 1013,9 hPa 0,0 l/m 7,7 km/h (2 Bft) O-SO45 115 0 min 0 lux 0 W/m
27.06.2014 04:19 15,3 C 13,0 C 19,4 C 66 % 1013,9 hPa 0,0 l/m 8,7 km/h (2 Bft) SO45 125 0 min 0 lux 0 W/m
27.06.2014 04:24 15,3 C 13,1 C 19,4 C 66 % 1013,9 hPa 0,0 l/m 8,9 km/h (2 Bft) SO45 130 0 min 0 lux 0 W/m
27.06.2014 04:29 15,3 C 13,1 C 19,4 C 65 % 1013,9 hPa 0,0 l/m 0,4 km/h (0 Bft) O-SO22.5 110 0 min 0 lux 0 W/m
27.06.2014 04:35 15,4 C 13,2 C 19,4 C 66 % 1013,9 hPa 0,0 l/m 1,2 km/h (1 Bft) O-SO45 105 0 min 0 lux 0 W/m
27.06.2014 04:40 15,4 C 13,3 C 19,3 C 66 % 1013,9 hPa 0,0 l/m 1,2 km/h (1 Bft) SO45 135 0 min 0 lux 0 W/m
27.06.2014 04:44 15,4 C 13,4 C 19,3 C 66 % 1013,9 hPa 0,0 l/m 0,5 km/h (0 Bft) O-SO22.5 120 0 min 0 lux 0 W/m
27.06.2014 04:49 15,4 C 13,4 C 19,3 C 66 % 1013,9 hPa 0,0 l/m 0,4 km/h (0 Bft) SO 125 0 min 0 lux 0 W/m
27.06.2014 04:54 15,4 C 13,3 C 19,3 C 66 % 1013,9 hPa 0,0 l/m 0,9 km/h (0 Bft) SO22.5 135 0 min 0 lux 0 W/m
27.06.2014 04:59 15,4 C 13,3 C 19,3 C 66 % 1013,9 hPa 0,0 l/m 0,3 km/h (0 Bft) O-SO45 105 0 min 30 lux 0 W/m
27.06.2014 05:05 15,4 C 13,2 C 19,3 C 66 % 1013,9 hPa 0,0 l/m 1,0 km/h (0 Bft) O22.5 95 0 min 51 lux 0 W/m
27.06.2014 05:09 15,4 C 13,2 C 19,3 C 66 % 1013,9 hPa 0,0 l/m 7,4 km/h (2 Bft) O-SO22.5 120 0 min 85 lux 0 W/m
27.06.2014 05:14 15,4 C 13,3 C 19,3 C 66 % 1013,9 hPa 0,0 l/m 8,3 km/h (2 Bft) O-SO22.5 120 0 min 141 lux 0 W/m
27.06.2014 05:19 15,5 C 13,3 C 19,3 C 65 % 1013,9 hPa 0,0 l/m 0,9 km/h (0 Bft) SO22.5 140 0 min 139 lux 0 W/m
27.06.2014 05:24 15,5 C 13,5 C 19,3 C 65 % 1013,9 hPa 0,0 l/m 9,1 km/h (2 Bft) SO22.5 140 0 min 179 lux 0 W/m
27.06.2014 05:30 15,6 C 13,6 C 19,3 C 65 % 1013,9 hPa 0,0 l/m 6,8 km/h (2 Bft) SO45 145 0 min 213 lux 1 W/m
27.06.2014 05:35 15,6 C 13,7 C 19,3 C 65 % 1013,9 hPa 0,0 l/m 8,1 km/h (2 Bft) SO22.5 145 0 min 409 lux 3 W/m
27.06.2014 05:39 15,6 C 13,8 C 19,3 C 64 % 1013,9 hPa 0,0 l/m 10,9 km/h (2 Bft) SO45 130 0 min 615 lux 4 W/m
27.06.2014 05:44 15,6 C 14,0 C 19,3 C 64 % 1013,9 hPa 0,0 l/m 9,2 km/h (2 Bft) SO45 135 0 min 693 lux 5 W/m
27.06.2014 05:49 15,6 C 14,1 C 19,3 C 64 % 1013,9 hPa 0,0 l/m 7,9 km/h (2 Bft) SO45 125 0 min 818 lux 6 W/m
27.06.2014 05:55 15,6 C 14,1 C 19,3 C 64 % 1013,9 hPa 0,0 l/m 7,6 km/h (2 Bft) SO45 135 0 min 1,03 klux 7 W/m
27.06.2014 06:00 15,6 C 14,0 C 19,3 C 65 % 1013,9 hPa 0,0 l/m 7,6 km/h (2 Bft) O-SO22.5 110 0 min 1,21 klux 8 W/m
27.06.2014 06:04 15,4 C 13,8 C 19,3 C 66 % 1013,9 hPa 0,0 l/m 7,5 km/h (2 Bft) O-SO22.5 115 0 min 1,52 klux 10 W/m
27.06.2014 06:09 15,4 C 13,7 C 19,3 C 66 % 1013,9 hPa 0,0 l/m 4,2 km/h (1 Bft) O-SO 120 0 min 1,98 klux 14 W/m
27.06.2014 06:14 15,3 C 13,5 C 19,3 C 66 % 1013,9 hPa 0,0 l/m 3,0 km/h (1 Bft) O-SO 120 0 min 2,27 klux 16 W/m
27.06.2014 06:20 15,2 C 13,3 C 19,3 C 66 % 1013,9 hPa 0,0 l/m 6,7 km/h (2 Bft) SO45 135 0 min 2,40 klux 16 W/m
27.06.2014 06:25 15,3 C 13,3 C 19,3 C 65 % 1013,9 hPa 0,0 l/m 10,0 km/h (2 Bft) S-SO22.5 150 0 min 2,99 klux 20 W/m
27.06.2014 06:29 15,5 C 13,4 C 19,3 C 64 % 1013,9 hPa 0,0 l/m 11,9 km/h (2 Bft) SO45 140 0 min 3,96 klux 27 W/m
27.06.2014 06:34 15,6 C 13,8 C 19,3 C 64 % 1013,9 hPa 0,0 l/m 11,8 km/h (2 Bft) S-SO45 160 0 min 5,43 klux 37 W/m
27.06.2014 06:39 15,7 C 14,8 C 19,3 C 63 % 1013,9 hPa 0,0 l/m 13,3 km/h (3 Bft) S-SO45 160 0 min 6,63 klux 45 W/m
27.06.2014 06:44 15,9 C 15,4 C 19,2 C 63 % 1013,9 hPa 0,0 l/m 8,5 km/h (2 Bft) SO22.5 145 0 min 9,1 klux 62 W/m
27.06.2014 06:50 16,0 C 16,6 C 19,2 C 63 % 1013,9 hPa 0,0 l/m 9,8 km/h (2 Bft) SO22.5 135 0 min 8,87 klux 61 W/m
27.06.2014 06:55 16,2 C 17,5 C 19,2 C 62 % 1013,9 hPa 0,0 l/m 8,3 km/h (2 Bft) S-SO22.5 160 0 min 9,2 klux 63 W/m
27.06.2014 06:59 16,4 C 17,8 C 19,2 C 62 % 1013,9 hPa 0,0 l/m 10,0 km/h (2 Bft) S-SO22.5 150 0 min 7,21 klux 49 W/m
27.06.2014 07:04 16,4 C 17,8 C 19,2 C 61 % 1013,9 hPa 0,0 l/m 9,8 km/h (2 Bft) S-SO22.5 165 0 min 6,17 klux 42 W/m
27.06.2014 07:10 16,4 C 17,3 C 19,2 C 61 % 1013,9 hPa 0,0 l/m 12,6 km/h (3 Bft) S-SO22.5 160 0 min 6,82 klux 47 W/m
27.06.2014 07:15 16,4 C 17,2 C 19,2 C 61 % 1013,9 hPa 0,0 l/m 12,6 km/h (3 Bft) S-SO22.5 160 0 min 7,82 klux 53 W/m
27.06.2014 07:14 16,4 C 17,2 C 19,2 C 61 % 1013,9 hPa 0,0 l/m 12,6 km/h (3 Bft) S-SO22.5 160 0 min 7,82 klux 53 W/m
27.06.2014 07:20 16,3 C 17,3 C 19,2 C 61 % 1013,9 hPa 0,0 l/m 9,0 km/h (2 Bft) S-SO22.5 160 0 min 9,1 klux 62 W/m
27.06.2014 07:25 16,4 C 17,7 C 19,2 C 62 % 1013,9 hPa 0,0 l/m 10,0 km/h (2 Bft) S-SO45 150 0 min 9,9 klux 68 W/m
27.06.2014 07:30 16,4 C 18,6 C 19,2 C 62 % 1013,9 hPa 0,0 l/m 10,3 km/h (2 Bft) S-SO22.5 160 0 min 14,2 klux 97 W/m
27.06.2014 07:34 16,5 C 19,0 C 19,2 C 62 % 1013,9 hPa 0,0 l/m 9,4 km/h (2 Bft) S-SO22.5 160 0 min 14,6 klux 100 W/m
27.06.2014 07:39 16,7 C 20,1 C 19,2 C 62 % 1013,9 hPa 0,0 l/m 9,2 km/h (2 Bft) S45 170 0 min 13,9 klux 95 W/m
27.06.2014 07:44 16,8 C 20,0 C 19,2 C 61 % 1013,9 hPa 0,0 l/m 13,0 km/h (3 Bft) S-SO45 165 0 min 11,3 klux 77 W/m
27.06.2014 07:49 16,8 C 19,9 C 19,2 C 61 % 1013,9 hPa 0,0 l/m 11,0 km/h (2 Bft) S-SO45 165 0 min 13,1 klux 90 W/m
27.06.2014 07:55 16,8 C 20,0 C 19,2 C 61 % 1013,9 hPa 0,0 l/m 12,5 km/h (2 Bft) S22.5 170 0 min 15,1 klux 103 W/m
27.06.2014 08:00 16,9 C 20,4 C 19,2 C 61 % 1013,9 hPa 0,0 l/m 13,3 km/h (3 Bft) S-SO22.5 165 0 min 15,7 klux 107 W/m
27.06.2014 08:04 17,0 C 21,4 C 19,2 C 61 % 1013,9 hPa 0,0 l/m 14,8 km/h (3 Bft) S22.5 175 0 min 18,0 klux 123 W/m
27.06.2014 08:05 17,0 C 21,4 C 19,2 C 61 % 1013,9 hPa 0,0 l/m 14,8 km/h (3 Bft) S22.5 175 0 min 18,0 klux 123 W/m
27.06.2014 08:09 17,2 C 21,4 C 19,2 C 61 % 1013,9 hPa 0,0 l/m 12,8 km/h (3 Bft) S-SO22.5 165 0 min 13,8 klux 94 W/m
27.06.2014 08:14 17,2 C 21,5 C 19,2 C 61 % 1013,9 hPa 0,0 l/m 11,8 km/h (2 Bft) S45 170 0 min 16,4 klux 112 W/m
27.06.2014 08:19 17,2 C 21,8 C 19,2 C 61 % 1013,9 hPa 0,0 l/m 19,8 km/h (3 Bft) S-SO45 165 0 min 19,3 klux 132 W/m
27.06.2014 08:25 17,3 C 22,2 C 19,2 C 61 % 1013,9 hPa 0,0 l/m 13,9 km/h (3 Bft) S-SO22.5 165 0 min 21,3 klux 146 W/m
27.06.2014 08:30 17,3 C 22,8 C 19,2 C 61 % 1013,9 hPa 0,0 l/m 14,9 km/h (3 Bft) S-SO45 160 0 min 23,2 klux 159 W/m
27.06.2014 08:34 17,6 C 23,7 C 19,2 C 60 % 1013,9 hPa 0,0 l/m 15,5 km/h (3 Bft) S22.5 170 0 min 24,7 klux 169 W/m
27.06.2014 08:39 17,6 C 23,9 C 19,2 C 59 % 1013,9 hPa 0,0 l/m 15,0 km/h (3 Bft) S45 170 0 min 22,7 klux 155 W/m
27.06.2014 08:44 17,7 C 23,9 C 19,2 C 59 % 1013,9 hPa 0,0 l/m 19,9 km/h (4 Bft) S45 175 0 min 21,9 klux 150 W/m
27.06.2014 08:50 17,7 C 23,5 C 19,2 C 59 % 1013,9 hPa 0,0 l/m 17,1 km/h (3 Bft) S45 170 0 min 21,7 klux 148 W/m
27.06.2014 08:55 17,7 C 23,0 C 19,2 C 59 % 1013,9 hPa 0,0 l/m 14,3 km/h (3 Bft) S45 170 0 min 18,4 klux 126 W/m
27.06.2014 08:59 17,7 C 22,9 C 19,2 C 59 % 1013,9 hPa 0,0 l/m 14,2 km/h (3 Bft) S45 170 0 min 22,9 klux 157 W/m
27.06.2014 09:04 18,2 C 26,8 C 19,2 C 59 % 1013,9 hPa 0,0 l/m 14,5 km/h (3 Bft) S22.5 170 5 min 51,5 klux 352 W/m
27.06.2014 09:09 18,5 C 30,0 C 19,2 C 58 % 1013,9 hPa 0,0 l/m 13,2 km/h (3 Bft) S-SO45 155 5 min 51,1 klux 350 W/m
27.06.2014 09:15 19,2 C 30,4 C 19,3 C 56 % 1013,8 hPa 0,0 l/m 14,5 km/h (3 Bft) S22.5 170 6 min 62,2 klux 425 W/m
27.06.2014 09:20 19,2 C 33,7 C 19,3 C 56 % 1013,8 hPa 0,0 l/m 13,4 km/h (3 Bft) S22.5 185 5 min 63,2 klux 432 W/m
27.06.2014 09:24 19,6 C 35,8 C 19,3 C 54 % 1013,8 hPa 0,0 l/m 14,0 km/h (3 Bft) S45 180 4 min 64,4 klux 440 W/m
27.06.2014 09:29 20,2 C 36,5 C 19,3 C 52 % 1013,8 hPa 0,0 l/m 12,6 km/h (3 Bft) S45 180 5 min 68,8 klux 471 W/m
27.06.2014 09:34 20,3 C 35,5 C 19,3 C 53 % 1013,8 hPa 0,0 l/m 17,5 km/h (3 Bft) SW45 215 5 min 63,5 klux 434 W/m
27.06.2014 09:39 20,3 C 33,6 C 19,3 C 50 % 1013,8 hPa 0,0 l/m 17,8 km/h (3 Bft) SW22.5 225 0 min 39,2 klux 268 W/m
27.06.2014 09:45 20,0 C 32,3 C 19,3 C 51 % 1013,8 hPa 0,0 l/m 13,1 km/h (3 Bft) S-SW45 200 0 min 39,6 klux 271 W/m
27.06.2014 09:50 20,0 C 30,4 C 19,3 C 51 % 1013,8 hPa 0,0 l/m 14,8 km/h (3 Bft) SW45 220 0 min 30,2 klux 207 W/m
27.06.2014 09:55 19,9 C 28,8 C 19,4 C 52 % 1013,8 hPa 0,0 l/m 16,9 km/h (3 Bft) SW45 215 0 min 30,5 klux 209 W/m
27.06.2014 09:59 19,7 C 28,5 C 19,4 C 52 % 1013,8 hPa 0,0 l/m 15,0 km/h (3 Bft) S-SW45 210 0 min 31,6 klux 216 W/m
27.06.2014 10:04 19,8 C 28,9 C 19,4 C 52 % 1013,8 hPa 0,0 l/m 11,8 km/h (2 Bft) S-SW22.5 210 0 min 34,9 klux 239 W/m
27.06.2014 10:10 19,9 C 28,4 C 19,4 C 53 % 1013,8 hPa 0,0 l/m 11,8 km/h (2 Bft) SW22.5 220 0 min 30,8 klux 211 W/m
27.06.2014 10:15 19,9 C 28,9 C 19,4 C 53 % 1013,8 hPa 0,0 l/m 13,1 km/h (3 Bft) SW22.5 215 0 min 39,2 klux 268 W/m
27.06.2014 10:20 20,0 C 28,9 C 19,4 C 55 % 1013,8 hPa 0,0 l/m 13,0 km/h (3 Bft) SW45 215 0 min 30,7 klux 210 W/m
27.06.2014 10:19 20,0 C 28,9 C 19,4 C 55 % 1013,8 hPa 0,0 l/m 13,0 km/h (3 Bft) SW45 215 0 min 30,7 klux 210 W/m
27.06.2014 10:25 20,0 C 28,6 C 19,4 C 55 % 1013,8 hPa 0,0 l/m 15,5 km/h (3 Bft) SW45 225 0 min 33,0 klux 226 W/m
27.06.2014 10:30 20,0 C 28,7 C 19,4 C 55 % 1013,8 hPa 0,0 l/m 14,4 km/h (3 Bft) SW22.5 230 0 min 40,8 klux 279 W/m
27.06.2014 10:34 20,0 C 29,2 C 19,5 C 55 % 1013,8 hPa 0,0 l/m 8,2 km/h (2 Bft) S-SW22.5 205 4 min 66,4 klux 454 W/m
27.06.2014 10:39 20,6 C 34,8 C 19,5 C 52 % 1013,8 hPa 0,0 l/m 8,7 km/h (2 Bft) S45 190 5 min 66,7 klux 456 W/m
27.06.2014 10:44 20,9 C 35,5 C 19,5 C 51 % 1013,8 hPa 0,0 l/m 12,7 km/h (3 Bft) S-SW22.5 205 0 min 48,8 klux 334 W/m
27.06.2014 10:49 21,0 C 34,1 C 19,5 C 51 % 1013,8 hPa 0,0 l/m 12,8 km/h (3 Bft) S-SW45 200 0 min 42,1 klux 288 W/m
27.06.2014 10:55 21,0 C 32,4 C 19,5 C 51 % 1013,8 hPa 0,0 l/m 11,3 km/h (2 Bft) S-SW22.5 205 0 min 27,1 klux 185 W/m
27.06.2014 11:00 20,5 C 30,3 C 19,6 C 53 % 1013,8 hPa 0,0 l/m 13,1 km/h (3 Bft) S-SW22.5 200 0 min 26,3 klux 180 W/m
27.06.2014 11:04 20,4 C 28,4 C 19,6 C 53 % 1013,8 hPa 0,0 l/m 21,5 km/h (4 Bft) S-SW45 195 0 min 32,4 klux 222 W/m
27.06.2014 11:09 20,4 C 28,4 C 19,6 C 54 % 1013,8 hPa 0,0 l/m 21,5 km/h (4 Bft) S-SW45 195 5 min 77,1 klux 527 W/m
27.06.2014 11:14 20,8 C 32,2 C 19,6 C 55 % 1013,8 hPa 0,0 l/m 16,9 km/h (3 Bft) S-SW45 210 0 min 48,1 klux 329 W/m
27.06.2014 11:19 20,9 C 33,3 C 19,7 C 53 % 1013,8 hPa 0,0 l/m 19,5 km/h (3 Bft) S-SW22.5 210 0 min 56,2 klux 384 W/m
27.06.2014 11:25 21,1 C 34,9 C 19,6 C 55 % 1013,8 hPa 0,0 l/m 13,3 km/h (3 Bft) SW22.5 220 6 min 64,0 klux 438 W/m
27.06.2014 11:30 21,5 C 36,2 C 19,7 C 51 % 1013,8 hPa 0,0 l/m 14,1 km/h (3 Bft) SW45 215 0 min 54,6 klux 373 W/m
27.06.2014 11:34 21,4 C 37,0 C 19,7 C 51 % 1013,8 hPa 0,0 l/m 15,9 km/h (3 Bft) S-SW22.5 195 0 min 55,4 klux 379 W/m
27.06.2014 11:39 21,7 C 43,3 C 19,8 C 51 % 1013,8 hPa 0,0 l/m 11,6 km/h (2 Bft) S45 190 5 min 87,5 klux 599 W/m
27.06.2014 11:44 22,2 C 44,6 C 19,8 C 49 % 1013,8 hPa 0,0 l/m 20,1 km/h (4 Bft) S45 190 5 min 91,6 klux 627 W/m
27.06.2014 11:49 22,0 C 41,0 C 19,8 C 47 % 1013,8 hPa 0,0 l/m 17,4 km/h (3 Bft) S22.5 190 0 min 53,6 klux 367 W/m
27.06.2014 11:55 22,0 C 39,3 C 20,0 C 50 % 1013,8 hPa 0,0 l/m 14,6 km/h (3 Bft) SW22.5 215 0 min 53,6 klux 367 W/m
27.06.2014 12:00 22,1 C 39,3 C 20,0 C 49 % 1013,8 hPa 0,0 l/m 14,6 km/h (3 Bft) SW22.5 215 0 min 49,5 klux 339 W/m
27.06.2014 12:04 22,3 C 38,3 C 20,0 C 50 % 1013,8 hPa 0,0 l/m 9,9 km/h (2 Bft) S-SW22.5 205 0 min 43,3 klux 296 W/m
27.06.2014 12:09 22,2 C 36,6 C 20,0 C 49 % 1013,8 hPa 0,0 l/m 17,3 km/h (3 Bft) S-SW45 210 5 min 73,4 klux 502 W/m
27.06.2014 12:14 22,3 C 37,4 C 20,1 C 50 % 1013,8 hPa 0,0 l/m 15,7 km/h (3 Bft) S-SW45 205 0 min 42,2 klux 289 W/m
27.06.2014 12:20 22,3 C 36,4 C 20,1 C 49 % 1013,8 hPa 0,0 l/m 16,2 km/h (3 Bft) S-SW45 210 0 min 51,9 klux 355 W/m
27.06.2014 12:25 22,8 C 39,5 C 20,2 C 49 % 1013,8 hPa 0,0 l/m 16,0 km/h (3 Bft) S-SW45 200 0 min 53,9 klux 369 W/m
27.06.2014 12:30 23,0 C 41,0 C 20,2 C 49 % 1013,8 hPa 0,0 l/m 14,0 km/h (3 Bft) S-SW45 210 5 min 74,1 klux 507 W/m
27.06.2014 12:34 23,1 C 40,6 C 20,2 C 46 % 1013,8 hPa 0,0 l/m 11,9 km/h (2 Bft) S-SW45 200 0 min 47,7 klux 326 W/m
27.06.2014 12:39 23,3 C 41,1 C 20,3 C 48 % 1013,8 hPa 0,0 l/m 13,0 km/h (3 Bft) SW45 230 0 min 67,6 klux 462 W/m
27.06.2014 12:44 23,4 C 40,5 C 20,3 C 44 % 1013,8 hPa 0,0 l/m 11,5 km/h (2 Bft) SW22.5 225 0 min 55,4 klux 379 W/m
27.06.2014 12:50 23,5 C 40,5 C 20,4 C 48 % 1013,8 hPa 0,0 l/m 18,3 km/h (3 Bft) SW22.5 215 6 min 71,5 klux 489 W/m
27.06.2014 12:55 24,0 C 46,4 C 20,5 C 45 % 1013,8 hPa 0,0 l/m 16,8 km/h (3 Bft) S-SW45 210 5 min 86,4 klux 591 W/m
27.06.2014 13:00 24,2 C 46,0 C 20,5 C 41 % 1013,8 hPa 0,0 l/m 16,0 km/h (3 Bft) S-SW22.5 200 0 min 48,4 klux 331 W/m
27.06.2014 13:04 24,2 C 44,6 C 20,7 C 41 % 1013,8 hPa 0,0 l/m 15,8 km/h (3 Bft) S-SW45 200 0 min 47,3 klux 324 W/m
27.06.2014 13:09 23,7 C 40,1 C 20,7 C 44 % 1013,8 hPa 0,0 l/m 17,0 km/h (3 Bft) S-SW45 205 0 min 37,5 klux 257 W/m
27.06.2014 13:14 23,5 C 37,2 C 20,7 C 44 % 1013,8 hPa 0,0 l/m 12,8 km/h (3 Bft) S-SW45 210 0 min 36,9 klux 252 W/m
27.06.2014 13:20 23,4 C 36,5 C 20,8 C 44 % 1013,8 hPa 0,0 l/m 15,2 km/h (3 Bft) S-SW45 205 0 min 38,8 klux 265 W/m
27.06.2014 13:25 23,4 C 39,0 C 20,8 C 44 % 1013,8 hPa 0,0 l/m 12,4 km/h (2 Bft) S-SW45 200 5 min 70,2 klux 480 W/m
27.06.2014 13:29 23,8 C 41,2 C 20,8 C 43 % 1013,8 hPa 0,0 l/m 14,4 km/h (3 Bft) S22.5 170 0 min 66,8 klux 457 W/m
27.06.2014 13:34 24,2 C 46,3 C 21,0 C 45 % 1013,8 hPa 0,0 l/m 13,2 km/h (3 Bft) S-SO45 165 5 min 84,3 klux 577 W/m
27.06.2014 13:39 24,6 C 48,7 C 21,1 C 42 % 1013,8 hPa 0,0 l/m 12,0 km/h (2 Bft) S22.5 170 5 min 92,0 klux 629 W/m
27.06.2014 13:44 24,9 C 47,3 C 21,1 C 42 % 1013,8 hPa 0,0 l/m 12,6 km/h (3 Bft) S-SW45 205 5 min 90,4 klux 618 W/m
27.06.2014 13:50 25,1 C 46,9 C 21,2 C 42 % 1013,7 hPa 0,0 l/m 11,8 km/h (2 Bft) SW22.5 215 6 min 84,7 klux 579 W/m
27.06.2014 13:55 25,2 C 46,9 C 21,3 C 41 % 1013,7 hPa 0,0 l/m 11,8 km/h (2 Bft) SW22.5 215 0 min 55,5 klux 380 W/m
27.06.2014 14:00 25,1 C 46,1 C 21,3 C 41 % 1013,7 hPa 0,0 l/m 10,5 km/h (2 Bft) S-SW22.5 195 0 min 68,5 klux 469 W/m
27.06.2014 14:04 25,1 C 44,7 C 21,4 C 41 % 1012,7 hPa 0,0 l/m 18,6 km/h (3 Bft) S-SW22.5 205 0 min 66,7 klux 456 W/m
27.06.2014 14:09 24,9 C 43,0 C 21,4 C 41 % 1012,7 hPa 0,0 l/m 21,1 km/h (4 Bft) SW45 215 5 min 73,3 klux 501 W/m
27.06.2014 14:14 24,9 C 41,6 C 21,5 C 41 % 1012,7 hPa 0,0 l/m 24,1 km/h (4 Bft) SW22.5 225 0 min 50,9 klux 348 W/m
27.06.2014 14:20 24,7 C 39,4 C 21,5 C 43 % 1012,8 hPa 0,0 l/m 18,8 km/h (3 Bft) SW45 215 0 min 45,9 klux 314 W/m
27.06.2014 14:24 25,0 C 39,1 C 21,6 C 42 % 1012,7 hPa 0,0 l/m 21,8 km/h (4 Bft) S-SW45 205 0 min 63,8 klux 436 W/m
27.06.2014 14:29 24,9 C 39,1 C 21,7 C 42 % 1012,7 hPa 0,0 l/m 18,3 km/h (3 Bft) SW22.5 215 0 min 39,5 klux 270 W/m
27.06.2014 14:35 24,4 C 35,3 C 21,7 C 43 % 1012,8 hPa 0,0 l/m 15,1 km/h (3 Bft) S-SW45 210 0 min 22,7 klux 155 W/m
27.06.2014 14:40 23,8 C 31,3 C 21,7 C 44 % 1012,8 hPa 0,0 l/m 27,5 km/h (5 Bft) SW45 225 0 min 25,0 klux 171 W/m
27.06.2014 14:44 23,8 C 30,9 C 21,8 C 44 % 1012,8 hPa 0,0 l/m 23,0 km/h (4 Bft) S-SW45 205 0 min 34,9 klux 239 W/m
27.06.2014 14:49 23,6 C 32,1 C 21,8 C 44 % 1012,8 hPa 0,0 l/m 22,2 km/h (4 Bft) SW45 220 0 min 60,4 klux 413 W/m
27.06.2014 14:54 24,3 C 33,3 C 21,8 C 43 % 1012,8 hPa 0,0 l/m 25,1 km/h (4 Bft) SW45 220 0 min 59,7 klux 408 W/m
27.06.2014 14:59 24,2 C 37,3 C 21,8 C 42 % 1012,8 hPa 0,0 l/m 24,6 km/h (4 Bft) S-SW45 205 0 min 60,6 klux 415 W/m
27.06.2014 15:05 24,3 C 36,7 C 21,9 C 43 % 1012,8 hPa 0,0 l/m 27,4 km/h (5 Bft) SW45 215 0 min 53,1 klux 363 W/m
27.06.2014 15:09 24,4 C 36,3 C 22,0 C 44 % 1012,8 hPa 0,0 l/m 20,5 km/h (4 Bft) SW22.5 215 0 min 56,0 klux 383 W/m
27.06.2014 15:14 24,4 C 36,3 C 22,0 C 44 % 1012,8 hPa 0,0 l/m 22,0 km/h (4 Bft) SW45 215 0 min 53,4 klux 365 W/m
27.06.2014 15:19 24,4 C 38,3 C 22,0 C 44 % 1012,8 hPa 0,0 l/m 17,8 km/h (3 Bft) S-SW45 205 5 min 66,9 klux 458 W/m
27.06.2014 15:24 24,8 C 40,8 C 22,1 C 42 % 1012,7 hPa 0,0 l/m 19,0 km/h (3 Bft) S-SW45 195 5 min 65,0 klux 445 W/m
27.06.2014 15:29 24,8 C 39,5 C 22,1 C 41 % 1012,7 hPa 0,0 l/m 19,8 km/h (3 Bft) S-SW45 200 0 min 48,8 klux 334 W/m
27.06.2014 15:35 24,6 C 37,0 C 22,2 C 44 % 1012,8 hPa 0,0 l/m 20,6 km/h (4 Bft) SW45 230 0 min 47,5 klux 325 W/m
27.06.2014 15:40 24,7 C 36,2 C 22,2 C 42 % 1012,8 hPa 0,0 l/m 13,8 km/h (3 Bft) SW45 220 0 min 59,3 klux 406 W/m
27.06.2014 15:44 24,7 C 38,4 C 22,2 C 41 % 1012,8 hPa 0,0 l/m 20,6 km/h (4 Bft) S-SW45 195 0 min 52,0 klux 356 W/m
27.06.2014 15:49 24,7 C 37,9 C 22,3 C 42 % 1012,8 hPa 0,0 l/m 19,5 km/h (3 Bft) SW67.5 215 0 min 47,4 klux 324 W/m
27.06.2014 15:54 24,8 C 36,3 C 22,3 C 41 % 1012,7 hPa 0,0 l/m 26,1 km/h (4 Bft) S-SW45 205 0 min 51,5 klux 352 W/m
27.06.2014 15:59 24,7 C 36,5 C 22,3 C 42 % 1012,8 hPa 0,0 l/m 24,0 km/h (4 Bft) SW22.5 230 0 min 43,4 klux 297 W/m
27.06.2014 16:05 24,6 C 34,5 C 22,4 C 44 % 1012,8 hPa 0,0 l/m 18,4 km/h (3 Bft) SW45 235 0 min 39,1 klux 267 W/m
27.06.2014 16:10 24,4 C 33,7 C 22,4 C 44 % 1012,8 hPa 0,0 l/m 20,9 km/h (4 Bft) W-SW22.5 240 0 min 29,8 klux 204 W/m
27.06.2014 16:14 24,3 C 32,0 C 22,3 C 43 % 1012,8 hPa 0,0 l/m 15,9 km/h (3 Bft) S-SW45 205 0 min 23,1 klux 158 W/m
27.06.2014 16:19 23,8 C 29,3 C 22,4 C 46 % 1012,8 hPa 0,0 l/m 19,0 km/h (3 Bft) W-SW45 240 0 min 19,5 klux 133 W/m
27.06.2014 16:24 23,7 C 28,7 C 22,3 C 46 % 1012,8 hPa 0,0 l/m 20,0 km/h (4 Bft) W-SW67.5 250 0 min 19,2 klux 131 W/m
27.06.2014 16:29 23,5 C 27,5 C 22,3 C 46 % 1012,8 hPa 0,0 l/m 19,5 km/h (3 Bft) W-SW22.5 255 0 min 19,4 klux 133 W/m
27.06.2014 16:35 23,4 C 26,4 C 22,3 C 50 % 1012,8 hPa 0,0 l/m 24,0 km/h (4 Bft) W-SW45 250 0 min 19,7 klux 135 W/m
27.06.2014 16:40 22,8 C 22,9 C 22,3 C 53 % 1012,8 hPa 0,0 l/m 27,6 km/h (5 Bft) W-SW22.5 250 0 min 21,0 klux 144 W/m
27.06.2014 16:44 22,4 C 22,9 C 22,3 C 54 % 1012,8 hPa 0,0 l/m 15,3 km/h (3 Bft) SW45 215 0 min 22,6 klux 155 W/m
27.06.2014 16:49 22,4 C 23,4 C 22,3 C 54 % 1012,8 hPa 0,0 l/m 21,3 km/h (4 Bft) SW67.5 230 0 min 20,7 klux 142 W/m
27.06.2014 16:54 22,0 C 23,8 C 22,3 C 56 % 1012,8 hPa 0,0 l/m 24,2 km/h (4 Bft) W-SW22.5 250 0 min 17,8 klux 122 W/m
27.06.2014 16:59 21,8 C 23,7 C 22,2 C 55 % 1012,8 hPa 0,0 l/m 24,2 km/h (4 Bft) W-SW22.5 250 0 min 15,6 klux 107 W/m
27.06.2014 17:05 21,7 C 24,0 C 22,1 C 56 % 1012,8 hPa 0,0 l/m 18,6 km/h (3 Bft) SW45 235 0 min 27,7 klux 189 W/m
27.06.2014 17:09 22,2 C 26,8 C 22,1 C 55 % 1012,8 hPa 0,0 l/m 15,8 km/h (3 Bft) SW22.5 230 0 min 35,5 klux 243 W/m
27.06.2014 17:14 22,4 C 27,9 C 22,1 C 54 % 1012,8 hPa 0,0 l/m 13,8 km/h (3 Bft) SW45 225 0 min 35,7 klux 244 W/m
27.06.2014 17:19 22,8 C 29,1 C 22,0 C 51 % 1012,8 hPa 0,0 l/m 12,3 km/h (2 Bft) SW22.5 225 0 min 43,3 klux 296 W/m
27.06.2014 17:24 23,1 C 30,3 C 22,0 C 51 % 1012,8 hPa 0,0 l/m 12,9 km/h (3 Bft) SW22.5 230 0 min 42,1 klux 288 W/m
27.06.2014 17:30 23,2 C 30,7 C 22,0 C 49 % 1012,8 hPa 0,0 l/m 20,1 km/h (4 Bft) W-SW22.5 245 0 min 38,8 klux 265 W/m
27.06.2014 17:35 23,2 C 30,6 C 22,0 C 48 % 1012,8 hPa 0,0 l/m 23,6 km/h (4 Bft) W-SW45 245 0 min 37,0 klux 253 W/m
27.06.2014 17:39 23,2 C 29,9 C 22,0 C 49 % 1012,8 hPa 0,0 l/m 16,9 km/h (3 Bft) W-SW67.5 240 0 min 34,9 klux 239 W/m
27.06.2014 17:44 23,3 C 30,2 C 22,0 C 50 % 1012,8 hPa 0,0 l/m 16,8 km/h (3 Bft) SW22.5 235 0 min 34,9 klux 239 W/m
27.06.2014 17:49 23,5 C 30,3 C 22,0 C 49 % 1012,8 hPa 0,0 l/m 13,9 km/h (3 Bft) W-SW22.5 240 0 min 37,5 klux 257 W/m
27.06.2014 17:54 23,6 C 30,0 C 22,0 C 47 % 1012,8 hPa 0,0 l/m 13,4 km/h (3 Bft) SW22.5 230 0 min 30,1 klux 206 W/m
27.06.2014 17:59 23,2 C 29,6 C 21,9 C 49 % 1012,8 hPa 0,0 l/m 22,1 km/h (4 Bft) SW22.5 225 0 min 29,5 klux 202 W/m
27.06.2014 18:04 23,2 C 29,3 C 21,9 C 49 % 1012,8 hPa 0,0 l/m 16,3 km/h (3 Bft) S-SW45 205 0 min 25,9 klux 177 W/m
27.06.2014 18:09 23,0 C 28,9 C 21,9 C 50 % 1012,8 hPa 0,0 l/m 16,9 km/h (3 Bft) S45 190 0 min 24,6 klux 168 W/m
27.06.2014 18:14 22,9 C 28,3 C 21,9 C 50 % 1012,8 hPa 0,0 l/m 16,0 km/h (3 Bft) S-SW22.5 200 0 min 20,6 klux 141 W/m
27.06.2014 18:19 22,9 C 27,9 C 21,9 C 50 % 1012,8 hPa 0,0 l/m 11,8 km/h (2 Bft) S-SW22.5 205 0 min 18,2 klux 124 W/m
27.06.2014 18:24 22,7 C 27,6 C 21,8 C 51 % 1011,8 hPa 0,0 l/m 12,8 km/h (3 Bft) S-SW22.5 195 0 min 18,1 klux 124 W/m
27.06.2014 18:30 22,4 C 27,0 C 21,8 C 54 % 1011,8 hPa 0,0 l/m 15,9 km/h (3 Bft) S45 175 0 min 17,9 klux 122 W/m
27.06.2014 18:35 22,2 C 26,6 C 21,8 C 54 % 1011,8 hPa 0,0 l/m 18,6 km/h (3 Bft) S22.5 175 0 min 16,7 klux 114 W/m
27.06.2014 18:39 22,1 C 26,4 C 21,8 C 54 % 1011,8 hPa 0,0 l/m 14,3 km/h (3 Bft) S22.5 185 0 min 15,5 klux 106 W/m
27.06.2014 18:44 22,1 C 26,0 C 21,8 C 54 % 1011,8 hPa 0,0 l/m 10,3 km/h (2 Bft) S22.5 175 0 min 12,9 klux 88 W/m
27.06.2014 18:49 22,1 C 25,5 C 21,8 C 55 % 1011,8 hPa 0,0 l/m 11,0 km/h (2 Bft) S-SO22.5 160 0 min 9,9 klux 68 W/m
27.06.2014 18:54 22,0 C 25,1 C 21,7 C 55 % 1011,8 hPa 0,0 l/m 6,7 km/h (2 Bft) S-SO 165 0 min 10,2 klux 70 W/m
27.06.2014 18:55 22,0 C 25,1 C 21,7 C 55 % 1011,8 hPa 0,0 l/m 6,7 km/h (2 Bft) S-SO 165 0 min 10,2 klux 70 W/m
27.06.2014 19:00 22,1 C 24,9 C 21,7 C 56 % 1012,8 hPa 0,0 l/m 3,7 km/h (1 Bft) S-SO 165 0 min 10,6 klux 73 W/m
27.06.2014 19:05 21,9 C 24,7 C 21,7 C 56 % 1011,8 hPa 0,0 l/m 9,8 km/h (2 Bft) S-SO22.5 160 0 min 11,2 klux 77 W/m
27.06.2014 19:10 21,8 C 25,1 C 21,7 C 57 % 1011,8 hPa 0,0 l/m 7,0 km/h (2 Bft) S-SO22.5 160 0 min 15,4 klux 105 W/m
27.06.2014 19:14 21,6 C 25,2 C 21,6 C 58 % 1011,8 hPa 0,0 l/m 12,6 km/h (3 Bft) S-SO45 165 0 min 12,2 klux 83 W/m
27.06.2014 19:19 21,6 C 24,9 C 21,6 C 58 % 1011,8 hPa 0,0 l/m 12,0 km/h (2 Bft) S-SO22.5 165 0 min 10,5 klux 72 W/m
27.06.2014 19:24 21,5 C 24,2 C 21,6 C 58 % 1011,8 hPa 0,0 l/m 13,3 km/h (3 Bft) SO45 145 0 min 8,67 klux 59 W/m
27.06.2014 19:29 21,3 C 23,7 C 21,5 C 59 % 1011,8 hPa 0,0 l/m 11,7 km/h (2 Bft) S-SO45 160 0 min 8,67 klux 59 W/m
27.06.2014 19:35 21,1 C 22,8 C 21,5 C 61 % 1011,8 hPa 0,0 l/m 7,4 km/h (2 Bft) SO22.5 130 0 min 3,70 klux 25 W/m
27.06.2014 19:40 21,1 C 21,7 C 21,5 C 61 % 1012,8 hPa 0,0 l/m 8,7 km/h (2 Bft) SO22.5 145 0 min 1,86 klux 13 W/m
27.06.2014 19:44 20,8 C 21,3 C 21,5 C 62 % 1012,8 hPa 0,0 l/m 5,9 km/h (2 Bft) SO 145 0 min 1,86 klux 13 W/m
27.06.2014 19:49 20,7 C 20,9 C 21,5 C 63 % 1012,8 hPa 0,0 l/m 7,9 km/h (2 Bft) SO22.5 140 0 min 688 lux 5 W/m
27.06.2014 19:54 20,6 C 20,0 C 21,5 C 64 % 1012,8 hPa 0,0 l/m 3,3 km/h (1 Bft) SO 130 0 min 637 lux 4 W/m
27.06.2014 19:59 20,5 C 19,5 C 21,5 C 65 % 1012,8 hPa 0,0 l/m 4,0 km/h (1 Bft) O-NO67.5 65 0 min 550 lux 4 W/m
27.06.2014 20:05 20,3 C 19,4 C 21,4 C 66 % 1012,8 hPa 0,0 l/m 5,8 km/h (2 Bft) N 355 0 min 390 lux 3 W/m
27.06.2014 20:09 20,2 C 18,4 C 21,4 C 67 % 1012,8 hPa 0,0 l/m 0,3 km/h (0 Bft) N 355 0 min 384 lux 3 W/m
27.06.2014 20:14 20,0 C 18,1 C 21,4 C 68 % 1012,8 hPa 0,0 l/m 9,7 km/h (2 Bft) W-NW67.5 295 0 min 341 lux 2 W/m
27.06.2014 20:19 18,8 C 17,5 C 21,4 C 75 % 1013,9 hPa 0,0 l/m 32,0 km/h (5 Bft) W-NW45 285 0 min 179 lux 1 W/m
27.06.2014 20:24 17,3 C 16,3 C 21,4 C 82 % 1013,9 hPa 0,4 l/m 27,1 km/h (5 Bft) W-NW45 300 0 min 166 lux 1 W/m
27.06.2014 20:30 17,0 C 15,8 C 21,3 C 84 % 1013,9 hPa 0,7 l/m 22,7 km/h (4 Bft) NW45 305 0 min 264 lux 2 W/m
27.06.2014 20:35 16,6 C 15,6 C 21,4 C 85 % 1013,9 hPa 0,4 l/m 14,5 km/h (3 Bft) NW45 310 0 min 313 lux 2 W/m
27.06.2014 20:39 16,4 C 15,4 C 21,3 C 86 % 1013,9 hPa 0,4 l/m 13,2 km/h (3 Bft) N-NW67.5 340 0 min 306 lux 2 W/m
27.06.2014 20:44 16,4 C 15,4 C 21,3 C 86 % 1013,9 hPa 0,4 l/m 16,8 km/h (3 Bft) W-NW22.5 295 0 min 296 lux 2 W/m
27.06.2014 20:49 16,2 C 15,3 C 21,3 C 88 % 1013,9 hPa 0,4 l/m 18,0 km/h (3 Bft) W-NW22.5 295 0 min 265 lux 2 W/m
27.06.2014 20:54 16,0 C 15,2 C 21,3 C 88 % 1013,9 hPa 0,0 l/m 15,8 km/h (3 Bft) NW22.5 305 0 min 241 lux 2 W/m
27.06.2014 21:00 15,7 C 15,1 C 21,3 C 88 % 1013,9 hPa 0,4 l/m 11,8 km/h (2 Bft) NW22.5 315 0 min 255 lux 2 W/m
27.06.2014 21:05 15,7 C 15,0 C 21,2 C 88 % 1013,9 hPa 0,0 l/m 9,2 km/h (2 Bft) NW22.5 305 0 min 262 lux 2 W/m
27.06.2014 21:10 15,6 C 15,0 C 21,2 C 88 % 1013,9 hPa 1,1 l/m 9,7 km/h (2 Bft) W-NW67.5 300 0 min 272 lux 2 W/m
27.06.2014 21:15 15,6 C 14,9 C 21,2 C 88 % 1013,9 hPa 0,0 l/m 9,7 km/h (2 Bft) W-NW67.5 300 0 min 267 lux 2 W/m
27.06.2014 21:19 15,7 C 14,9 C 21,1 C 88 % 1013,9 hPa 0,7 l/m 8,7 km/h (2 Bft) W-NW22.5 300 0 min 262 lux 2 W/m
27.06.2014 21:24 15,6 C 14,8 C 21,1 C 87 % 1013,9 hPa 0,0 l/m 9,2 km/h (2 Bft) W-NW45 295 0 min 260 lux 2 W/m
27.06.2014 21:29 15,6 C 14,7 C 21,1 C 87 % 1013,9 hPa 0,0 l/m 14,9 km/h (3 Bft) NW45 325 0 min 262 lux 2 W/m
27.06.2014 21:34 15,5 C 14,6 C 21,1 C 87 % 1013,9 hPa 0,0 l/m 11,2 km/h (2 Bft) NW67.5 305 0 min 204 lux 1 W/m
27.06.2014 21:40 15,4 C 14,4 C 21,1 C 86 % 1013,9 hPa 0,4 l/m 1,1 km/h (1 Bft) N45 355 0 min 106 lux 1 W/m
27.06.2014 21:45 15,4 C 14,5 C 21,0 C 87 % 1013,9 hPa 0,0 l/m 0,0 km/h (0 Bft) N-NO 25 0 min 65 lux 0 W/m
27.06.2014 21:49 15,5 C 14,5 C 21,0 C 87 % 1013,9 hPa 0,4 l/m 0,0 km/h (0 Bft) N-NO 25 0 min 48 lux 0 W/m
27.06.2014 21:54 15,6 C 14,5 C 21,0 C 88 % 1013,9 hPa 0,4 l/m 7,8 km/h (2 Bft) W 265 0 min 41 lux 0 W/m
27.06.2014 21:59 15,6 C 14,5 C 20,9 C 89 % 1013,9 hPa 0,0 l/m 9,8 km/h (2 Bft) W-SW22.5 245 0 min 40 lux 0 W/m
27.06.2014 22:05 15,3 C 14,3 C 21,0 C 89 % 1013,9 hPa 0,0 l/m 6,1 km/h (2 Bft) W-SW22.5 240 0 min 30 lux 0 W/m
27.06.2014 22:10 15,3 C 14,2 C 20,9 C 89 % 1013,9 hPa 0,0 l/m 0,0 km/h (0 Bft) SW 235 0 min 23 lux 0 W/m
27.06.2014 22:14 15,2 C 14,3 C 20,9 C 88 % 1013,9 hPa 0,0 l/m 3,7 km/h (1 Bft) W-SW45 255 0 min 12 lux 0 W/m
27.06.2014 22:19 15,1 C 14,3 C 20,9 C 88 % 1013,9 hPa 0,0 l/m 10,3 km/h (2 Bft) NO45 35 0 min 5 lux 0 W/m
27.06.2014 22:24 15,1 C 14,3 C 20,8 C 89 % 1013,9 hPa 0,4 l/m 7,2 km/h (2 Bft) N 360 0 min 4 lux 0 W/m
27.06.2014 22:29 15,2 C 14,2 C 20,8 C 89 % 1013,9 hPa 0,0 l/m 0,0 km/h (0 Bft) N 360 0 min 1 lux 0 W/m
27.06.2014 22:35 15,3 C 14,2 C 20,8 C 89 % 1013,9 hPa 0,0 l/m 0,0 km/h (0 Bft) N 360 0 min 0 lux 0 W/m
27.06.2014 22:40 15,3 C 14,0 C 20,8 C 89 % 1013,9 hPa 0,0 l/m 0,0 km/h (0 Bft) N 360 0 min 0 lux 0 W/m
27.06.2014 22:45 15,1 C 13,9 C 20,7 C 88 % 1013,9 hPa 0,0 l/m 0,0 km/h (0 Bft) N 360 0 min 0 lux 0 W/m
27.06.2014 22:49 15,0 C 13,9 C 20,7 C 88 % 1013,9 hPa 0,0 l/m 0,0 km/h (0 Bft) N 360 0 min 0 lux 0 W/m
27.06.2014 22:54 15,1 C 13,9 C 20,7 C 89 % 1013,9 hPa 0,0 l/m 4,2 km/h (1 Bft) O-SO45 110 0 min 0 lux 0 W/m
27.06.2014 22:59 15,2 C 14,0 C 20,7 C 89 % 1013,9 hPa 0,0 l/m 4,9 km/h (1 Bft) SO 145 0 min 0 lux 0 W/m
27.06.2014 23:05 15,2 C 14,0 C 20,7 C 89 % 1013,9 hPa 0,0 l/m 6,1 km/h (2 Bft) S-SO22.5 155 0 min 0 lux 0 W/m
27.06.2014 23:09 15,2 C 14,1 C 20,6 C 89 % 1013,9 hPa 0,0 l/m 8,4 km/h (2 Bft) S22.5 170 0 min 0 lux 0 W/m
27.06.2014 23:15 15,1 C 14,1 C 20,6 C 89 % 1013,9 hPa 0,0 l/m 11,9 km/h (2 Bft) S22.5 185 0 min 0 lux 0 W/m
27.06.2014 23:20 15,1 C 14,0 C 20,6 C 89 % 1014,9 hPa 0,0 l/m 16,3 km/h (3 Bft) SW45 215 0 min 0 lux 0 W/m
27.06.2014 23:24 15,0 C 14,0 C 20,6 C 89 % 1014,9 hPa 0,0 l/m 15,1 km/h (3 Bft) S-SW45 210 0 min 0 lux 0 W/m
27.06.2014 23:29 15,0 C 14,0 C 20,6 C 89 % 1014,9 hPa 0,4 l/m 16,5 km/h (3 Bft) S-SW22.5 195 0 min 0 lux 0 W/m
27.06.2014 23:34 15,0 C 14,0 C 20,5 C 89 % 1014,9 hPa 0,0 l/m 11,9 km/h (2 Bft) S45 185 0 min 0 lux 0 W/m
27.06.2014 23:39 15,0 C 14,1 C 20,5 C 89 % 1013,9 hPa 0,0 l/m 12,1 km/h (2 Bft) S45 175 0 min 0 lux 0 W/m
27.06.2014 23:44 15,0 C 14,1 C 20,5 C 89 % 1013,9 hPa 0,0 l/m 13,5 km/h (3 Bft) S45 180 0 min 0 lux 0 W/m
27.06.2014 23:50 15,0 C 14,1 C 20,5 C 90 % 1013,9 hPa 0,0 l/m 10,7 km/h (2 Bft) S-SO45 160 0 min 0 lux 0 W/m
27.06.2014 23:55 15,0 C 14,1 C 20,5 C 90 % 1013,9 hPa 0,4 l/m 8,1 km/h (2 Bft) SO45 140 0 min 0 lux 0 W/m
27.06.2014 23:59 15,0 C 14,0 C 20,5 C 90 % 1013,9 hPa 0,0 l/m 10,0 km/h (2 Bft) S-SO22.5 160 0 min 0 lux 0 W/m
_ Min-Zeit 01:14 01:09 06:44 13:00 18:24 - 00:04 - - - - -
Minimum _ 13,9 C 10,6 C 19,2 C 41 % 1011,8 hPa - 0,0 km/h (0 Bft) - - - - -
_ Max-Zeit 13:55 13:39 16:05 23:50 23:24 21:10 20:19 - - 09:15 13:39 13:39
Maximum _ 25,2 C 48,7 C 22,4 C 90 % 1014,9 hPa 1,1 l/m 32,0 km/h
W-NW (5 Bft)
- - 6 min 92,0 klux 629 W/m
Durchschnitt _ 18,8 C 23,1 C 20,4 C 62 % 1013,6 hPa #6,8 l/m 11,0 km/h (2 Bft) S-SW - #2:07 h 20,7 klux 208 W/m